This is the latest recevied weather packets stored in our database for station/object VK5TRM-14. If no packets are shown the sender has not sent any weather packets the latest 10 day(s).
| Time | Temp. | Humidity | Pressure | Rain* | Wind** | Luminosity | Snow |
|---|---|---|---|---|---|---|---|
| 1777834805 | 12.22° C | 79% | 1013 hPa | 0.25 mm | - | - | - |
| 1777833905 | 12.22° C | 79% | 1013 hPa | 0.25 mm | - | - | - |
| 1777833005 | 12.22° C | 80% | 1012.8 hPa | 0.25 mm | - | - | - |
| 1777832105 | 12.22° C | 80% | 1012.8 hPa | 0.25 mm | - | - | - |
| 1777831205 | 12.78° C | 77% | 1012.9 hPa | 0.25 mm | - | - | - |
| 1777830305 | 12.78° C | 77% | 1012.9 hPa | 0.25 mm | - | - | - |
| 1777829405 | 12.78° C | 77% | 1013.1 hPa | 0.25 mm | - | - | - |
| 1777828505 | 12.78° C | 77% | 1013.1 hPa | 0.25 mm | - | - | - |
| 1777827605 | 12.22° C | 78% | 1013.2 hPa | 0.25 mm | - | - | - |
| 1777826705 | 12.22° C | 78% | 1013.2 hPa | 0.25 mm | - | - | - |
| 1777825806 | 12.22° C | 81% | 1013.4 hPa | 0.25 mm | - | - | - |
| 1777824905 | 12.22° C | 81% | 1013.4 hPa | 0.25 mm | - | - | - |
| 1777824005 | 12.22° C | 81% | 1013.6 hPa | 0.25 mm | - | - | - |
| 1777823105 | 12.22° C | 81% | 1013.6 hPa | 0.25 mm | - | - | - |
| 1777822205 | 13.33° C | 76% | 1013.7 hPa | 0.25 mm | - | - | - |
| 1777821305 | 13.33° C | 76% | 1013.7 hPa | 0.25 mm | - | - | - |
| 1777820405 | 14.44° C | 70% | 1013.9 hPa | 0.25 mm | - | - | - |
| 1777819505 | 14.44° C | 70% | 1013.9 hPa | 0.25 mm | - | - | - |
| 1777818605 | 15° C | 66% | 1014 hPa | 0.25 mm | - | - | - |
| 1777817705 | 15° C | 66% | 1014 hPa | 0.25 mm | - | - | - |
| 1777816805 | 15° C | 65% | 1014.1 hPa | 0.25 mm | - | - | - |
| 1777815906 | 15° C | 65% | 1014.1 hPa | 0.25 mm | - | - | - |
| 1777815006 | 15.56° C | 64% | 1014 hPa | 0.25 mm | - | - | - |
| 1777814105 | 15.56° C | 64% | 1014 hPa | 0.25 mm | - | - | - |
| 1777813205 | 15.56° C | 61% | 1013.8 hPa | 0.25 mm | - | - | - |
* Rain since midnight (hover to see other rain measurements)
** Current wind speed in m/s (hover to see current wind gust speed)